SP6FIG Weather Reports


Display with metric or nautical units.
time (UTC)temp
F
wind
direction
speed
MPH
gust
MPH
rain 1hr
in
rain 24hr
in
rain mn
in
humidity
%
barometer
mb
20260506191030 77 0.0 0.0 0.00 0.00 0.00 40 958.2
20260506190030 77 0.0 0.0 0.00 0.00 0.00 41 958.9
20260506185030 76 0.0 0.0 0.00 0.00 0.00 41 958.8
20260506184030 76 0.0 0.0 0.00 0.00 0.00 41 958.4
20260506183030 76 0.0 0.0 0.00 0.00 0.00 40 958.0
20260506182030 76 0.0 0.0 0.00 0.00 0.00 40 958.0
20260506181030 76 0.0 0.0 0.00 0.00 0.00 40 957.6
20260506180030 77 0.0 0.0 0.00 0.00 0.00 40 957.8
20260506175030 77 0.0 0.0 0.00 0.00 0.00 40 958.0
20260506174030 76 0.0 0.0 0.00 0.00 0.00 40 958.0
20260506173030 76 0.0 0.0 0.00 0.00 0.00 40 957.8
20260506172030 76 0.0 0.0 0.00 0.00 0.00 40 957.5
20260506171030 76 0.0 0.0 0.00 0.00 0.00 39 957.4
20260506170030 76 0.0 0.0 0.00 0.00 0.00 39 957.0
20260506165030 77 0.0 0.0 0.00 0.00 0.00 38 956.9
20260506164030 77 0.0 0.0 0.00 0.00 0.00 37 957.1
20260506163030 77 0.0 0.0 0.00 0.00 0.00 37 957.2
20260506162030 77 0.0 0.0 0.00 0.00 0.00 37 957.4
20260506161030 76 0.0 0.0 0.00 0.00 0.00 37 957.7
20260506160030 75 0.0 0.0 0.00 0.00 0.00 40 957.9
20260506155030 77 0.0 0.0 0.00 0.00 0.00 32 957.7
20260506154030 76 0.0 0.0 0.00 0.00 0.00 32 957.4
20260506153029 77 0.0 0.0 0.00 0.00 0.00 31 957.4
20260506152030 77 0.0 0.0 0.00 0.00 0.00 31 957.4
20260506151030 77 0.0 0.0 0.00 0.00 0.00 31 957.4
20260506150030 77 0.0 0.0 0.00 0.00 0.00 32 957.5
20260506145030 77 0.0 0.0 0.00 0.00 0.00 31 957.7
20260506144030 77 0.0 0.0 0.00 0.00 0.00 32 957.8
20260506143030 77 0.0 0.0 0.00 0.00 0.00 32 957.7
20260506142030 77 0.0 0.0 0.00 0.00 0.00 33 957.7
20260506141030 77 0.0 0.0 0.00 0.00 0.00 34 957.7
20260506140030 77 0.0 0.0 0.00 0.00 0.00 33 958.0
20260506135030 76 0.0 0.0 0.00 0.00 0.00 32 958.2
20260506134029 77 0.0 0.0 0.00 0.00 0.00 34 958.2
20260506133030 76 0.0 0.0 0.00 0.00 0.00 34 958.3
20260506132030 76 0.0 0.0 0.00 0.00 0.00 32 958.3
20260506131029 77 0.0 0.0 0.00 0.00 0.00 34 958.4
20260506130029 77 0.0 0.0 0.00 0.00 0.00 34 958.5
20260506125030 77 0.0 0.0 0.00 0.00 0.00 34 958.5
20260506124029 77 0.0 0.0 0.00 0.00 0.00 35 958.6
20260506123030 77 0.0 0.0 0.00 0.00 0.00 34 958.6
20260506122030 76 0.0 0.0 0.00 0.00 0.00 34 958.7
20260506121030 76 0.0 0.0 0.00 0.00 0.00 34 958.7
20260506120029 76 0.0 0.0 0.00 0.00 0.00 34 958.6
20260506115030 76 0.0 0.0 0.00 0.00 0.00 33 958.4
20260506114029 76 0.0 0.0 0.00 0.00 0.00 34 958.5
20260506113030 76 0.0 0.0 0.00 0.00 0.00 34 958.6
20260506112029 76 0.0 0.0 0.00 0.00 0.00 34 958.7
20260506111029 75 0.0 0.0 0.00 0.00 0.00 34 958.7
20260506110030 76 0.0 0.0 0.00 0.00 0.00 35 958.6
20260506105029 76 0.0 0.0 0.00 0.00 0.00 35 958.6
20260506104030 76 0.0 0.0 0.00 0.00 0.00 35 958.6
20260506103030 76 0.0 0.0 0.00 0.00 0.00 35 958.5
20260506102029 76 0.0 0.0 0.00 0.00 0.00 34 958.4
20260506101029 76 0.0 0.0 0.00 0.00 0.00 34 958.5
20260506100030 75 0.0 0.0 0.00 0.00 0.00 35 958.2
20260506095030 76 0.0 0.0 0.00 0.00 0.00 35 958.2
20260506094030 75 0.0 0.0 0.00 0.00 0.00 36 958.6
20260506093030 75 0.0 0.0 0.00 0.00 0.00 36 958.4
20260506092030 75 0.0 0.0 0.00 0.00 0.00 36 958.3
20260506091031 75 0.0 0.0 0.00 0.00 0.00 36 958.3
20260506090030 75 0.0 0.0 0.00 0.00 0.00 35 958.2
20260506085030 75 0.0 0.0 0.00 0.00 0.00 36 958.2
20260506084030 75 0.0 0.0 0.00 0.00 0.00 36 958.1
20260506083030 75 0.0 0.0 0.00 0.00 0.00 36 958.0
20260506082030 75 0.0 0.0 0.00 0.00 0.00 36 957.9
20260506081030 75 0.0 0.0 0.00 0.00 0.00 36 957.9
20260506073030 76 0.0 0.0 0.00 0.00 0.00 38 958.0
20260506072030 76 0.0 0.0 0.00 0.00 0.00 39 958.0
20260506071030 76 0.0 0.0 0.00 0.00 0.00 38 957.8
20260506062030 77 0.0 0.0 0.00 0.00 0.00 38 957.4
20260506061030 77 0.0 0.0 0.00 0.00 0.00 38 957.5
20260506051030 77 0.0 0.0 0.00 0.00 0.00 39 957.0
20260506045030 77 0.0 0.0 0.00 0.00 0.00 39 956.9
20260506044030 76 0.0 0.0 0.00 0.00 0.00 39 956.8
20260506043030 77 0.0 0.0 0.00 0.00 0.00 39 956.8
20260506042030 76 0.0 0.0 0.00 0.00 0.00 39 956.7
20260506041030 76 0.0 0.0 0.00 0.00 0.00 38 956.7
20260506040030 76 0.0 0.0 0.00 0.00 0.00 38 956.7
20260506035030 76 0.0 0.0 0.00 0.00 0.00 38 956.7
20260506034030 76 0.0 0.0 0.00 0.00 0.00 38 956.7
20260506033030 76 0.0 0.0 0.00 0.00 0.00 38 956.7
20260506032030 76 0.0 0.0 0.00 0.00 0.00 38 956.6
20260506031030 76 0.0 0.0 0.00 0.00 0.00 38 956.6
20260506030030 76 0.0 0.0 0.00 0.00 0.00 39 956.7
20260506025030 76 0.0 0.0 0.00 0.00 0.00 39 956.7
20260506024030 76 0.0 0.0 0.00 0.00 0.00 39 956.5
20260506023030 76 0.0 0.0 0.00 0.00 0.00 39 956.4
20260506022030 76 0.0 0.0 0.00 0.00 0.00 39 956.5
20260506021030 76 0.0 0.0 0.00 0.00 0.00 39 956.7
20260506020029 76 0.0 0.0 0.00 0.00 0.00 39 957.2
20260506015030 76 0.0 0.0 0.00 0.00 0.00 39 957.5
20260506014030 76 0.0 0.0 0.00 0.00 0.00 39 957.5
20260506013029 76 0.0 0.0 0.00 0.00 0.00 39 957.6
20260506012030 76 0.0 0.0 0.00 0.00 0.00 39 957.5
20260506011030 76 0.0 0.0 0.00 0.00 0.00 39 957.5
20260506010030 77 0.0 0.0 0.00 0.00 0.00 39 957.5
20260506005030 76 0.0 0.0 0.00 0.00 0.00 39 957.5
20260506004029 76 0.0 0.0 0.00 0.00 0.00 39 957.5
20260506003029 76 0.0 0.0 0.00 0.00 0.00 39 957.3
20260506002029 76 0.0 0.0 0.00 0.00 0.00 38 957.4
20260506001029 77 0.0 0.0 0.00 0.00 0.00 39 957.3
20260506000030 77 0.0 0.0 0.00 0.00 0.00 39 957.5
20260505235030 77 0.0 0.0 0.00 0.00 0.00 39 957.8
20260505234029 77 0.0 0.0 0.00 0.00 0.00 39 957.9
20260505233029 77 0.0 0.0 0.00 0.00 0.00 39 957.8
20260505232030 77 0.0 0.0 0.00 0.00 0.00 39 957.8
20260505231029 77 0.0 0.0 0.00 0.00 0.00 39 957.6
20260505230029 77 0.0 0.0 0.00 0.00 0.00 39 957.6
20260505225030 77 0.0 0.0 0.00 0.00 0.00 39 957.7
20260505224029 77 0.0 0.0 0.00 0.00 0.00 38 957.6
20260505223029 77 0.0 0.0 0.00 0.00 0.00 39 957.8
20260505222030 77 0.0 0.0 0.00 0.00 0.00 39 957.9
20260505221029 77 0.0 0.0 0.00 0.00 0.00 39 958.0
20260505220029 77 0.0 0.0 0.00 0.00 0.00 39 958.0
20260505215029 77 0.0 0.0 0.00 0.00 0.00 39 958.2
20260505214029 77 0.0 0.0 0.00 0.00 0.00 39 958.2
20260505213029 77 0.0 0.0 0.00 0.00 0.00 38 958.3
20260505212030 77 0.0 0.0 0.00 0.00 0.00 39 958.5
20260505211029 77 0.0 0.0 0.00 0.00 0.00 39 958.5
20260505210029 77 0.0 0.0 0.00 0.00 0.00 39 958.6
20260505205029 77 0.0 0.0 0.00 0.00 0.00 39 958.7
20260505204029 77 0.0 0.0 0.00 0.00 0.00 39 958.7
20260505203029 77 0.0 0.0 0.00 0.00 0.00 39 958.7
20260505202029 77 0.0 0.0 0.00 0.00 0.00 39 958.7
20260505201030 77 0.0 0.0 0.00 0.00 0.00 39 958.5
20260505200029 77 0.0 0.0 0.00 0.00 0.00 40 958.5
20260505195029 77 0.0 0.0 0.00 0.00 0.00 39 958.6
20260505194029 77 0.0 0.0 0.00 0.00 0.00 39 958.4
20260505193029 77 0.0 0.0 0.00 0.00 0.00 39 958.4
20260505192029 77 0.0 0.0 0.00 0.00 0.00 38 958.5